| time (UTC) | temp C | wind direction | speed KPH | gust KPH | rain 1hr cm | rain 24hr cm | rain mn cm | humidity % | barometer mb |
| 20260507093625 | 15 | 292 | 4.8 | 14.5 | 0.00 | 0.00 | 0.00 | 73 | |
| 20260507092704 | 14 | 358 | 4.8 | 9.7 | 0.00 | 0.00 | 0.00 | 73 | |
| 20260507091804 | 14 | 330 | 4.8 | 9.7 | 0.00 | 0.00 | 0.00 | 73 | |
| 20260507090904 | 13 | 288 | 3.2 | 8.0 | 0.00 | 0.00 | 0.00 | 74 | |
| 20260507090005 | 13 | 141 | 1.6 | 6.4 | 0.00 | 0.00 | 0.00 | 75 | |
| 20260507085403 | 13 | 155 | 3.2 | 8.0 | 0.00 | 0.00 | 0.00 | 75 | |
| 20260507084504 | 12 | 210 | 1.6 | 8.0 | 0.00 | 0.00 | 0.00 | 78 | |
| 20260507083604 | 12 | 211 | 1.6 | 11.3 | 0.00 | 0.00 | 0.00 | 79 | |
| 20260507082704 | 11 | 106 | 1.6 | 4.8 | 0.00 | 0.00 | 0.00 | 83 | |
| 20260507081804 | 10 | 32 | 0.0 | 4.8 | 0.00 | 0.00 | 0.00 | 81 | |
| 20260507080904 | 11 | 304 | 1.6 | 6.4 | 0.00 | 0.00 | 0.00 | 82 | |
| 20260507080005 | 11 | 161 | 4.8 | 9.7 | 0.00 | 0.00 | 0.00 | 82 | |
| 20260507075404 | 11 | 198 | 3.2 | 9.7 | 0.00 | 0.00 | 0.00 | 82 | |
| 20260507074504 | 10 | 133 | 3.2 | 8.0 | 0.00 | 0.00 | 0.00 | 86 | |
| 20260507073603 | 9 | 107 | 1.6 | 6.4 | 0.00 | 0.00 | 0.00 | 86 | |
| 20260507072725 | 8 | 198 | 3.2 | 9.7 | 0.00 | 0.00 | 0.00 | 86 | |
| 20260507071825 | 8 | 239 | 1.6 | 9.7 | 0.00 | 0.00 | 0.00 | 88 | |
| 20260507070904 | 8 | 106 | 3.2 | 8.0 | 0.00 | 0.00 | 0.00 | 89 | |
| 20260507070009 | 7 | 149 | 3.2 | 6.4 | 0.00 | 0.00 | 0.00 | 89 | |
| 20260507065424 | 7 | 153 | 1.6 | 6.4 | 0.00 | 0.00 | 0.00 | 90 | |
| 20260507064504 | 7 | 98 | 1.6 | 4.8 | 0.00 | 0.00 | 0.00 | 90 | |
| 20260507063603 | 7 | 77 | 1.6 | 8.0 | 0.00 | 0.00 | 0.00 | 91 | |
| 20260507062704 | 6 | 153 | 3.2 | 11.3 | 0.00 | 0.00 | 0.00 | 93 | |
| 20260507061804 | 6 | 299 | 0.0 | 4.8 | 0.00 | 0.00 | 0.00 | 95 | |
| 20260507060904 | 5 | 131 | 1.6 | 6.4 | 0.00 | 0.00 | 0.00 | 96 | |
| 20260507060005 | 4 | 150 | 1.6 | 4.8 | 0.00 | 0.00 | 0.00 | 95 | |
| 20260507055404 | 4 | 188 | 0.0 | 1.6 | 0.00 | 0.00 | 0.00 | 94 | |
| 20260507054504 | 4 | 0 | 0.0 | 0.0 | 0.00 | 0.00 | 0.00 | 93 | |
| 20260507053603 | 4 | 5 | 0.0 | 4.8 | 0.00 | 0.00 | 0.00 | 93 | |
| 20260507052704 | 4 | 29 | 3.2 | 6.4 | 0.00 | 0.00 | 0.00 | 93 | |
| 20260507051804 | 4 | 147 | 1.6 | 6.4 | 0.00 | 0.00 | 0.00 | 94 | |
| 20260507050904 | 4 | 97 | 1.6 | 4.8 | 0.00 | 0.00 | 0.00 | 94 | |
| 20260507050025 | 3 | 38 | 1.6 | 4.8 | 0.00 | 0.00 | 0.00 | 93 | |
| 20260507045404 | 4 | 7 | 1.6 | 4.8 | 0.00 | 0.00 | 0.00 | 93 | |
| 20260507044504 | 4 | 358 | 0.0 | 4.8 | 0.00 | 0.00 | 0.00 | 93 | |
| 20260507043624 | 4 | 142 | 0.0 | 4.8 | 0.00 | 0.00 | 0.00 | 93 | |
| 20260507042704 | 4 | 0 | 0.0 | 0.0 | 0.00 | 0.00 | 0.00 | 93 | |
| 20260507041803 | 4 | 147 | 1.6 | 4.8 | 0.00 | 0.00 | 0.00 | 94 | |
| 20260507040903 | 4 | 112 | 0.0 | 3.2 | 0.00 | 0.00 | 0.00 | 93 | |
| 20260507040004 | 3 | 0 | 0.0 | 0.0 | 0.00 | 0.00 | 0.00 | 93 | |
| 20260507035403 | 3 | 0 | 0.0 | 0.0 | 0.00 | 0.00 | 0.00 | 93 | |
| 20260507034525 | 3 | 0 | 0.0 | 0.0 | 0.00 | 0.00 | 0.00 | 93 | |
| 20260507033603 | 3 | 91 | 0.0 | 3.2 | 0.00 | 0.00 | 0.00 | 93 | |
| 20260507032704 | 3 | 272 | 0.0 | 1.6 | 0.00 | 0.00 | 0.00 | 91 | |
| 20260507031804 | 3 | 0 | 0.0 | 0.0 | 0.00 | 0.00 | 0.00 | 91 | |
| 20260507030904 | 3 | 79 | 0.0 | 1.6 | 0.00 | 0.00 | 0.00 | 91 | |
| 20260507030004 | 4 | 33 | 0.0 | 3.2 | 0.00 | 0.03 | 0.00 | 91 | |
| 20260507025404 | 4 | 44 | 0.0 | 3.2 | 0.00 | 0.03 | 0.00 | 91 | |
| 20260507024504 | 4 | 55 | 0.0 | 3.2 | 0.00 | 0.03 | 0.00 | 91 | |
| 20260507023604 | 5 | 32 | 0.0 | 3.2 | 0.00 | 0.03 | 0.00 | 91 | |
| 20260507022704 | 5 | 0 | 0.0 | 0.0 | 0.00 | 0.03 | 0.00 | 90 | |
| 20260507021803 | 5 | 0 | 0.0 | 0.0 | 0.00 | 0.03 | 0.00 | 90 | |
| 20260507020904 | 5 | 0 | 0.0 | 0.0 | 0.00 | 0.03 | 0.00 | 90 | |
| 20260507020004 | 5 | 128 | 0.0 | 1.6 | 0.00 | 0.03 | 0.00 | 91 | |
| 20260507015403 | 5 | 179 | 0.0 | 1.6 | 0.00 | 0.03 | 0.00 | 90 | |
| 20260507014503 | 5 | 219 | 0.0 | 3.2 | 0.00 | 0.03 | 0.00 | 90 | |
| 20260507013624 | 5 | 226 | 0.0 | 1.6 | 0.00 | 0.03 | 0.00 | 89 | |
| 20260507012703 | 5 | 0 | 0.0 | 0.0 | 0.00 | 0.03 | 0.00 | 89 | |
| 20260507011803 | 5 | 89 | 0.0 | 3.2 | 0.00 | 0.03 | 0.00 | 89 | |
| 20260507010903 | 6 | 15 | 0.0 | 1.6 | 0.00 | 0.03 | 0.00 | 89 | |
| 20260507010004 | 6 | 132 | 0.0 | 1.6 | 0.00 | 0.03 | 0.00 | 88 | |
| 20260507005404 | 6 | 146 | 0.0 | 3.2 | 0.00 | 0.03 | 0.00 | 88 | |
| 20260507004504 | 6 | 139 | 0.0 | 4.8 | 0.00 | 0.03 | 0.00 | 88 | |
| 20260507003604 | 6 | 0 | 0.0 | 0.0 | 0.00 | 0.03 | 0.00 | 88 | |
| 20260507002703 | 6 | 245 | 3.2 | 6.4 | 0.00 | 0.03 | 0.00 | 88 | |
| 20260507001804 | 6 | 147 | 3.2 | 6.4 | 0.00 | 0.03 | 0.00 | 87 | |
| 20260507000904 | 6 | 213 | 3.2 | 8.0 | 0.00 | 0.03 | 0.00 | 88 | |
| 20260507000017 | 6 | 266 | 1.6 | 6.4 | 0.00 | 0.03 | 0.00 | 88 | |
| 20260506235404 | 6 | 261 | 1.6 | 8.0 | 0.00 | 0.03 | 0.03 | 89 | |
| 20260506234504 | 6 | 281 | 4.8 | 9.7 | 0.00 | 0.03 | 0.03 | 88 | |
| 20260506233604 | 6 | 0 | 0.0 | 0.0 | 0.00 | 0.03 | 0.03 | 87 | |
| 20260506232704 | 6 | 110 | 0.0 | 1.6 | 0.00 | 0.03 | 0.03 | 87 | |
| 20260506231804 | 6 | 121 | 0.0 | 1.6 | 0.00 | 0.03 | 0.03 | 86 | |
| 20260506230904 | 6 | 0 | 0.0 | 0.0 | 0.00 | 0.03 | 0.03 | 86 | |
| 20260506230004 | 6 | 0 | 0.0 | 0.0 | 0.00 | 0.03 | 0.03 | 85 | |
| 20260506225404 | 7 | 0 | 0.0 | 0.0 | 0.00 | 0.03 | 0.03 | 84 | |
| 20260506224504 | 7 | 0 | 0.0 | 0.0 | 0.00 | 0.03 | 0.03 | 84 | |
| 20260506223603 | 7 | 113 | 1.6 | 4.8 | 0.00 | 0.03 | 0.03 | 83 | |
| 20260506222704 | 7 | 77 | 0.0 | 3.2 | 0.00 | 0.03 | 0.03 | 82 | |
| 20260506221804 | 8 | 294 | 0.0 | 3.2 | 0.00 | 0.03 | 0.03 | 81 | |
| 20260506220903 | 8 | 219 | 0.0 | 3.2 | 0.00 | 0.03 | 0.03 | 80 | |
| 20260506220005 | 8 | 176 | 1.6 | 6.4 | 0.00 | 0.03 | 0.03 | 79 | |
| 20260506215404 | 8 | 170 | 1.6 | 8.0 | 0.00 | 0.03 | 0.03 | 79 | |
| 20260506214503 | 8 | 185 | 3.2 | 8.0 | 0.00 | 0.03 | 0.03 | 80 | |
| 20260506213604 | 8 | 157 | 6.4 | 16.1 | 0.00 | 0.03 | 0.03 | 82 | |
| 20260506212703 | 8 | 125 | 0.0 | 1.6 | 0.00 | 0.03 | 0.03 | 83 | |
| 20260506211804 | 8 | 76 | 0.0 | 4.8 | 0.00 | 0.03 | 0.03 | 83 | |
| 20260506210904 | 8 | 80 | 0.0 | 4.8 | 0.00 | 0.03 | 0.03 | 82 | |
| 20260506210004 | 8 | 231 | 1.6 | 3.2 | 0.00 | 0.03 | 0.03 | 82 | |
| 20260506205404 | 8 | 224 | 0.0 | 3.2 | 0.00 | 0.03 | 0.03 | 81 | |
| 20260506204504 | 8 | 0 | 0.0 | 0.0 | 0.00 | 0.03 | 0.03 | 81 | |
| 20260506203604 | 9 | 247 | 0.0 | 1.6 | 0.00 | 0.03 | 0.03 | 79 | |
| 20260506202703 | 10 | 247 | 0.0 | 1.6 | 0.00 | 0.03 | 0.03 | 79 | |
| 20260506201824 | 10 | 53 | 0.0 | 3.2 | 0.00 | 0.03 | 0.03 | 77 | |
| 20260506200904 | 11 | 51 | 0.0 | 4.8 | 0.00 | 0.03 | 0.03 | 76 | |
| 20260506200025 | 11 | 53 | 0.0 | 4.8 | 0.00 | 0.03 | 0.03 | 75 | |
| 20260506195424 | 11 | 233 | 0.0 | 3.2 | 0.00 | 0.03 | 0.03 | 74 | |
| 20260506194503 | 11 | 248 | 3.2 | 4.8 | 0.00 | 0.03 | 0.03 | 74 | |
| 20260506193604 | 12 | 257 | 0.0 | 1.6 | 0.00 | 0.03 | 0.03 | 72 | |
| 20260506192703 | 13 | 138 | 1.6 | 3.2 | 0.00 | 0.03 | 0.03 | 67 | |
| 20260506191803 | 13 | 131 | 1.6 | 4.8 | 0.00 | 0.03 | 0.03 | 63 | |
| 20260506190903 | 14 | 0 | 0.0 | 0.0 | 0.00 | 0.03 | 0.03 | 63 | |
| 20260506190004 | 15 | 12 | 0.0 | 3.2 | 0.00 | 0.03 | 0.03 | 59 | |
| 20260506185404 | 15 | 7 | 0.0 | 3.2 | 0.00 | 0.03 | 0.03 | 60 | |
| 20260506184504 | 15 | 340 | 1.6 | 4.8 | 0.00 | 0.03 | 0.03 | 55 | |
| 20260506183624 | 15 | 1 | 1.6 | 4.8 | 0.00 | 0.03 | 0.03 | 53 | |
| 20260506182704 | 16 | 28 | 1.6 | 4.8 | 0.00 | 0.03 | 0.03 | 51 | |
| 20260506181824 | 16 | 77 | 1.6 | 4.8 | 0.00 | 0.03 | 0.03 | 50 | |
| 20260506180903 | 16 | 99 | 1.6 | 6.4 | 0.00 | 0.03 | 0.03 | 46 | |
| 20260506180005 | 17 | 64 | 1.6 | 6.4 | 0.00 | 0.03 | 0.03 | 46 | |
| 20260506175404 | 17 | 80 | 3.2 | 9.7 | 0.00 | 0.03 | 0.03 | 46 | |
| 20260506174504 | 17 | 69 | 3.2 | 6.4 | 0.00 | 0.03 | 0.03 | 48 | |
| 20260506173625 | 16 | 53 | 3.2 | 8.0 | 0.00 | 0.03 | 0.03 | 50 | |
| 20260506172704 | 16 | 80 | 1.6 | 6.4 | 0.00 | 0.03 | 0.03 | 51 | |
| 20260506171804 | 16 | 122 | 3.2 | 6.4 | 0.00 | 0.03 | 0.03 | 49 | |
| 20260506170904 | 16 | 113 | 4.8 | 9.7 | 0.00 | 0.03 | 0.03 | 49 | |
| 20260506170004 | 16 | 124 | 6.4 | 11.3 | 0.00 | 0.03 | 0.03 | 48 | |
| 20260506165405 | 16 | 102 | 3.2 | 9.7 | 0.00 | 0.03 | 0.03 | 49 | |
| 20260506164504 | 16 | 85 | 3.2 | 8.0 | 0.00 | 0.03 | 0.03 | 48 | |
| 20260506163604 | 16 | 98 | 6.4 | 11.3 | 0.00 | 0.03 | 0.03 | 50 | |
| 20260506162704 | 16 | 64 | 4.8 | 9.7 | 0.00 | 0.03 | 0.03 | 47 | |
| 20260506161826 | 16 | 66 | 4.8 | 11.3 | 0.00 | 0.03 | 0.03 | 50 | |
| 20260506160904 | 16 | 83 | 3.2 | 9.7 | 0.00 | 0.03 | 0.03 | 48 | |
| 20260506160025 | 16 | 78 | 4.8 | 11.3 | 0.00 | 0.03 | 0.03 | 52 | |
| 20260506155405 | 16 | 139 | 6.4 | 14.5 | 0.00 | 0.03 | 0.03 | 52 | |
| 20260506154504 | 16 | 172 | 8.0 | 16.1 | 0.00 | 0.03 | 0.03 | 56 | |
| 20260506153625 | 15 | 169 | 8.0 | 17.7 | 0.00 | 0.03 | 0.03 | 58 | |
| 20260506152704 | 15 | 117 | 4.8 | 11.3 | 0.00 | 0.03 | 0.03 | 51 | |
| 20260506151804 | 15 | 243 | 3.2 | 8.0 | 0.00 | 0.03 | 0.03 | 50 | |
| 20260506150904 | 15 | 242 | 6.4 | 11.3 | 0.00 | 0.03 | 0.03 | 49 | |
| 20260506150004 | 15 | 292 | 4.8 | 16.1 | 0.00 | 0.03 | 0.03 | 50 | |
| 20260506145425 | 16 | 337 | 6.4 | 16.1 | 0.00 | 0.03 | 0.03 | 48 | |
| 20260506144504 | 16 | 349 | 8.0 | 16.1 | 0.00 | 0.03 | 0.03 | 49 | |
| 20260506143625 | 16 | 351 | 9.7 | 17.7 | 0.00 | 0.03 | 0.03 | 51 | |
| 20260506142704 | 17 | 46 | 4.8 | 11.3 | 0.00 | 0.03 | 0.03 | 47 | |
| 20260506141804 | 17 | 58 | 6.4 | 12.9 | 0.00 | 0.03 | 0.03 | 48 | |
| 20260506140925 | 16 | 34 | 6.4 | 19.3 | 0.00 | 0.03 | 0.03 | 51 | |
| 20260506140005 | 16 | 15 | 6.4 | 19.3 | 0.00 | 0.03 | 0.03 | 55 | |
| 20260506135404 | 15 | 359 | 3.2 | 9.7 | 0.00 | 0.03 | 0.03 | 53 | |
| 20260506134504 | 16 | 90 | 4.8 | 12.9 | 0.00 | 0.03 | 0.03 | 52 | |
| 20260506133604 | 15 | 154 | 6.4 | 12.9 | 0.00 | 0.03 | 0.03 | 54 | |
| 20260506132725 | 15 | 129 | 3.2 | 9.7 | 0.00 | 0.03 | 0.03 | 53 | |
| 20260506131804 | 16 | 12 | 3.2 | 8.0 | 0.00 | 0.03 | 0.03 | 54 | |
| 20260506130904 | 15 | 162 | 4.8 | 12.9 | 0.00 | 0.03 | 0.03 | 54 | |
| 20260506130026 | 15 | 178 | 4.8 | 11.3 | 0.00 | 0.03 | 0.03 | 57 | |
| 20260506125405 | 14 | 233 | 4.8 | 11.3 | 0.00 | 0.03 | 0.03 | 56 | |
| 20260506124504 | 14 | 271 | 6.4 | 12.9 | 0.00 | 0.03 | 0.03 | 57 | |
| 20260506123604 | 14 | 313 | 3.2 | 8.0 | 0.00 | 0.03 | 0.03 | 58 | |
| 20260506122704 | 14 | 151 | 3.2 | 11.3 | 0.00 | 0.03 | 0.03 | 57 | |
| 20260506121804 | 14 | 121 | 3.2 | 8.0 | 0.00 | 0.03 | 0.03 | 57 | |
| 20260506120904 | 14 | 115 | 6.4 | 11.3 | 0.00 | 0.03 | 0.03 | 57 | |
| 20260506120005 | 14 | 39 | 4.8 | 11.3 | 0.00 | 0.03 | 0.03 | 62 | |
| 20260506115404 | 13 | 31 | 4.8 | 11.3 | 0.00 | 0.03 | 0.03 | 62 | |
| 20260506114504 | 13 | 71 | 4.8 | 12.9 | 0.00 | 0.03 | 0.03 | 62 | |
| 20260506113604 | 13 | 56 | 4.8 | 12.9 | 0.00 | 0.03 | 0.03 | 64 | |
| 20260506112725 | 13 | 296 | 4.8 | 11.3 | 0.00 | 0.03 | 0.03 | 65 | |
| 20260506111805 | 13 | 326 | 1.6 | 8.0 | 0.00 | 0.03 | 0.03 | 66 | |
| 20260506110904 | 13 | 86 | 3.2 | 12.9 | 0.00 | 0.03 | 0.03 | 67 | |
| 20260506110025 | 13 | 84 | 4.8 | 12.9 | 0.00 | 0.03 | 0.03 | 66 | |
| 20260506105404 | 13 | 71 | 4.8 | 11.3 | 0.00 | 0.03 | 0.03 | 66 | |
| 20260506104504 | 13 | 160 | 6.4 | 16.1 | 0.00 | 0.03 | 0.03 | 69 | |
| 20260506103604 | 13 | 133 | 6.4 | 16.1 | 0.00 | 0.03 | 0.03 | 65 | |
| 20260506102704 | 13 | 77 | 4.8 | 16.1 | 0.00 | 0.03 | 0.03 | 73 | |
| 20260506101804 | 12 | 122 | 6.4 | 20.9 | 0.00 | 0.03 | 0.03 | 73 | |
| 20260506100904 | 12 | 127 | 9.7 | 20.9 | 0.00 | 0.03 | 0.03 | 74 | |
| 20260506100005 | 12 | 135 | 8.0 | 16.1 | 0.00 | 0.03 | 0.03 | 76 | |
| 20260506095425 | 12 | 137 | 4.8 | 16.1 | 0.00 | 0.03 | 0.03 | 77 | |
| 20260506094504 | 11 | 93 | 4.8 | 12.9 | 0.00 | 0.03 | 0.03 | 78 |